Location: Cicognara
(44.9500°N, 10.4667°E)
Time: 06:36:30
(UTC+00:00)

Cosmos 1953 - Visible Passes

Search period start: 26 October 2021 00:00
Search period end: 05 November 2021 00:00
Orbit: 539 x 555 km, 82.5° (Epoch: 25 October)

Date Brightness Start Highest point End Pass type
(mag) Time Alt. Az. Time Alt. Az. Time Alt. Az.
26 Oct 2.8 03:27:39 58° ENE 03:27:54 59° E 03:31:51 10° SSE visible
26 Oct 4.2 05:03:36 11° W 05:03:41 11° W 05:04:55 10° W visible
26 Oct 4.6 17:22:07 10° SW 17:25:35 27° WNW 17:29:05 10° NNW visible
27 Oct 4.7 03:25:54 15° SSE 03:25:54 15° SSE 03:26:38 10° SSE visible
27 Oct 4.7 17:16:59 10° SW 17:20:22 25° WNW 17:23:48 10° NNW visible
28 Oct 4.9 17:11:50 10° SW 17:15:10 24° WNW 17:18:31 10° NNW visible
29 Oct 4.9 17:06:42 10° SW 17:09:57 23° WNW 17:13:13 10° NNW visible
30 Oct 5.0 17:01:35 10° WSW 17:04:44 21° WNW 17:07:54 10° NNW visible
31 Oct 5.1 16:56:28 10° WSW 16:59:31 20° WNW 17:02:35 10° NNW visible
01 Nov 5.2 16:51:21 10° WSW 16:54:18 19° WNW 16:57:15 10° NNW visible
02 Nov 5.2 16:46:15 10° WSW 16:49:04 18° WNW 16:51:55 10° NNW visible
03 Nov 5.2 16:41:09 10° WSW 16:43:51 17° WNW 16:46:33 10° NNW visible
04 Nov 5.2 16:36:04 10° WSW 16:38:38 16° WNW 16:41:12 10° NNW visible
